#timestamp,LO_Frequency,Hit,StdDev 
1511877615.2,286046998.1,N
1511877635.0,286046996.6,N
1511877635.9,286046996.6,N
1511877655.7,286046999.0,N
1511877675.6,286046995.1,N
1511877695.4,286046997.3,N
1511877715.2,286046993.3,N
1511877735.1,286046995.9,N
1511877736.0,286046995.9,N
1511877755.8,286046997.3,N
1511877775.6,286046997.9,N
1511877795.5,286046999.0,N
1511877815.3,286046999.3,N
1511877835.1,286046997.9,N
1511877855.9,286046995.0,N
1511877875.7,286046997.9,N
1511877895.5,286046996.3,N
1511877915.3,286046993.4,N
1511877935.2,286046998.0,N
1511877955.0,286046999.6,N
1511877955.9,286046999.6,N
1511877975.7,286046995.4,N
1511877995.6,286046992.6,N
1511878015.4,286046991.6,N
1511878035.2,286046991.0,N
1511878055.1,286046989.1,N
1511878056.0,286046989.1,N
1511878075.8,286046990.0,N
1511878095.6,286046989.5,N
1511878115.5,286046991.0,N
1511878135.3,286046990.9,N
1511878155.1,286046994.6,N
1511878175.9,286046996.7,N
1511878195.7,286046996.3,N
1511878215.5,286046995.6,N
1511878235.4,286046997.2,N
1511878255.2,286046999.5,N
1511878275.0,286046999.0,N
1511878275.9,286046999.0,N
1511878295.8,286046996.8,N
1511878315.6,286046995.3,N
1511878335.4,286046995.0,N
1511878355.2,286046999.3,N
1511878375.1,286047004.3,N
1511878376.0,286047004.3,N
1511878395.8,286047005.5,N
1511878415.6,286047005.9,N
1511878435.5,286047004.2,N
1511878455.3,286047005.6,N
1511878475.1,286047006.9,N
1511878495.9,286047008.2,N
1511878515.7,286047006.5,N
1511878535.5,286047006.1,N
1511878555.4,286047009.2,N
1511878575.2,286047009.7,N
1511878595.0,286047008.1,N
1511878595.9,286047008.1,N
1511878615.8,286047010.2,N
1511878635.6,286047007.9,N
1511878655.4,286047012.2,N
1511878675.3,286047012.2,N
1511878695.1,286047012.0,N
1511878696.0,286047012.0,N
1511878715.8,286047008.1,N
1511878735.6,286047007.8,N
1511878755.5,286047007.9,N
1511878775.3,286047006.7,N
1511878795.1,286047010.8,N
1511878815.9,286047010.2,N
1511878835.7,286047009.1,N
1511878855.5,286047009.2,N
1511878875.4,286047007.6,N
1511878895.2,286047006.6,N
1511878915.0,286047004.7,N
1511878915.9,286047004.7,N
1511878935.8,286047007.2,Y
1511878955.6,286046997.5,P
1511878975.4,286047001.1,N
1511878995.3,286047000.5,N
1511879015.8,286047000.3,N
1511879035.6,286047000.5,N
1511879055.4,286046999.0,N
1511879075.3,286046996.4,N
1511879095.1,286046995.9,N
1511879115.8,286046995.7,N
1511879135.7,286046995.8,N
1511879155.5,286046997.9,N
1511879175.3,286047000.8,N
1511879195.2,286046996.6,N
1511879215.9,286047001.2,N
1511879235.7,286047004.1,N
1511879255.6,286047000.0,N
1511879275.4,286046996.1,N
1511879295.2,286046999.4,N
1511879315.0,286046999.4,N
1511879315.9,286046999.4,N
1511879335.8,286046993.4,N
1511879355.6,286046995.8,N
1511879375.4,286046995.8,N
1511879395.3,286046992.2,N
1511879415.1,286046990.4,N
1511879435.8,286046989.1,Y
1511879455.7,286046989.8,P
1511879475.5,286046989.0,N
1511879495.3,286046987.0,P
1511879515.2,286046987.2,N
1511879535.0,286046985.9,Y
1511879535.9,286046985.9,P
1511879555.8,286046994.2,N
1511879575.6,286046992.0,N
1511879595.4,286046991.2,N
1511879615.3,286046988.7,Y
1511879635.1,286046999.1,P
1511879636.0,286046999.1,N
1511879655.8,286046998.9,N
1511879675.7,286047001.6,N
1511879695.5,286047002.0,N
1511879715.3,286047001.1,N
1511879735.1,286046997.6,N
1511879755.9,286047000.2,N
1511879775.7,286047004.3,N
1511879795.5,286047007.2,N
1511879815.4,286047008.7,N
1511879835.2,286047012.0,N
1511879855.0,286047009.4,N
1511879855.9,286047009.4,N
1511879875.8,286047012.6,N
1511879895.6,286047013.3,N
1511879915.4,286047009.3,N
1511879935.3,286047006.5,N
1511879955.1,286047001.3,N
1511879956.0,286047001.3,N
1511879975.8,286047003.8,N
1511879995.7,286047009.1,N
1511880015.5,286047009.6,N
1511880035.3,286047011.2,N
1511880055.1,286047008.5,N
1511880075.9,286047007.3,N
1511880095.7,286047009.1,N
1511880115.5,286047006.1,N
1511880135.4,286047006.4,N
1511880155.2,286047011.4,N
1511880175.0,286047011.3,N
1511880175.9,286047011.3,N
1511880195.8,286047007.8,N
1511880215.6,286047006.3,N
1511880235.4,286047008.4,N
1511880255.3,286047012.7,Y
1511880275.1,286047006.8,P
1511880295.8,286047004.4,P
1511880315.7,286047001.1,N
1511880335.5,286046999.9,N
1511880355.3,286047002.7,N
1511880375.2,286047001.3,N
1511880395.9,286047004.5,N
1511880415.7,286047007.3,N
1511880435.6,286047006.4,N
1511880455.4,286047003.3,N
1511880475.2,286047000.1,N
1511880495.0,286047001.2,N
1511880495.9,286047001.2,N
1511880515.8,286047000.1,N
1511880535.6,286047000.8,N
1511880555.4,286047003.1,N
1511880575.3,286047003.7,N
1511880595.1,286047004.1,N
1511880615.8,286047006.1,N
1511880635.7,286047004.6,N
1511880655.5,286047010.8,Y
1511880675.3,286047006.1,P
1511880695.2,286047010.2,P
1511880715.9,286047011.8,P
1511880735.7,286047013.9,Y
1511880755.6,286047002.2,P
1511880775.4,286046993.3,N
1511880795.2,286046990.6,N
1511880815.1,286046993.2,N
1511880816.0,286046993.2,N
1511880835.8,286046991.9,N
1511880855.6,286046991.7,N
1511880875.5,286046994.8,N
1511880895.3,286046994.7,N
1511880915.1,286046990.7,N
1511880935.8,286046989.6,N
1511880955.7,286046987.9,N
1511880975.5,286046987.7,N
1511880995.3,286046986.6,N
1511881015.2,286046987.5,N
1511881035.9,286046985.3,N
1511881055.7,286046982.1,Y
1511881075.6,286046990.7,P
1511881095.4,286046994.6,P
1511881115.2,286046997.4,N
1511881135.1,286046997.5,N
1511881136.0,286046997.5,N
1511881155.8,286046998.1,N
1511881175.6,286046998.3,N
1511881195.5,286047000.0,N
